This is the latest recevied weather packets stored in our database for station/object N3MFL. If no packets are shown the sender has not sent any weather packets the latest 10 day(s).
| Time | Temp. | Humidity | Pressure | Rain* | Wind** | Luminosity | Snow |
|---|---|---|---|---|---|---|---|
| 1777542132 | 7.78° C | 97% | 1008.8 hPa | 0 mm | - | 1 W/m² | - |
| 1777541829 | 7.78° C | 97% | 1008.8 hPa | 0 mm | - | 0 W/m² | - |
| 1777541527 | 7.78° C | 97% | 1008.9 hPa | 1.78 mm | - | 0 W/m² | - |
| 1777541223 | 7.78° C | 97% | 1008.6 hPa | 1.78 mm | - | 0 W/m² | - |
| 1777540011 | 7.78° C | 97% | 1008.8 hPa | 1.27 mm | - | 0 W/m² | - |
| 1777539706 | 7.78° C | 97% | 1008.8 hPa | 1.27 mm | - | 0 W/m² | - |
| 1777539403 | 7.78° C | 97% | 1008.7 hPa | 0 mm | - | 0 W/m² | - |
| 1777539099 | 7.78° C | 97% | 1008.9 hPa | 0 mm | - | 0 W/m² | - |
| 1777538795 | 7.78° C | 97% | 1008.9 hPa | 0 mm | - | 0 W/m² | - |
| 1777538494 | 7.78° C | 97% | 1008.8 hPa | 0 mm | - | 0 W/m² | - |
| 1777538191 | 7.78° C | 97% | 1008.9 hPa | 1.78 mm | - | 0 W/m² | - |
| 1777537887 | 7.78° C | 97% | 1008.8 hPa | 1.78 mm | - | 0 W/m² | - |
| 1777537583 | 7.78° C | 97% | 1009.2 hPa | 0 mm | - | 0 W/m² | - |
| 1777537279 | 7.78° C | 97% | 1009.4 hPa | 1.27 mm | - | 0 W/m² | - |
| 1777536975 | 7.78° C | 97% | 1009.5 hPa | 1.27 mm | - | 0 W/m² | - |
| 1777536673 | 7.78° C | 97% | 1009.5 hPa | 0 mm | - | 0 W/m² | - |
| 1777536370 | 7.78° C | 96% | 1009.6 hPa | 0 mm | - | 0 W/m² | - |
| 1777536066 | 7.78° C | 96% | 1009.8 hPa | 1.78 mm | - | 0 W/m² | - |
| 1777535762 | 7.78° C | 96% | 1009.9 hPa | 1.78 mm | - | 0 W/m² | - |
| 1777535459 | 7.78° C | 96% | 1009.9 hPa | 1.78 mm | - | 0 W/m² | - |
| 1777535156 | 7.78° C | 96% | 1010 hPa | 0 mm | - | 0 W/m² | - |
| 1777534852 | 7.78° C | 96% | 1010.3 hPa | 0 mm | - | 0 W/m² | - |
| 1777534549 | 7.78° C | 96% | 1010.2 hPa | 0 mm | - | 0 W/m² | - |
| 1777534247 | 7.78° C | 96% | 1010.3 hPa | 0 mm | - | 0 W/m² | - |
| 1777533945 | 7.78° C | 96% | 1010.3 hPa | 0 mm | - | 0 W/m² | - |
* Rain latest hour (hover to see other rain measurements)
** Current wind speed in m/s (hover to see current wind gust speed)